Torna al catalogo

ONEWEB-0450

AttivoComunicazioniPO
NORAD 50504·PAYLOAD·🇬🇧 United Kingdom

Lanciato Dec 27, 2021 da Baikonur Cosmodrome

Loading…

Prossimi Passaggi (prossime 24 ore)

TLE

AggiornatoSource: CelesTrak SupGP

Epoca: Sep 14, 2026, 12:27 UTC

1 50504C 21132AM  26257.51889306  .00002290  00000+0  58157-2 0  2572
2 50504  87.9161 317.7066 0001917  94.2561  14.6985 13.18681920    16

Traccia ONEWEB-0450 in tempo reale con AllMySat

Download on the App Store